User: anonymous   Login
Location: Theydon Bois
(51.6750°N, 0.1050°E)
Time: 04:45:33
(UTC+01:00)
Language:

SL-24 R/B - RUBIN 2 - Orbit

View from above orbital plane
View from above orbital plane
View from above satellite
View from above satellite

Ground track
Ground track

The orbit data is extracted from the following two-line orbital elements,

1 27610U 02058F   17291.18335119 -.00000066  00000-0  16392-4 0  9990
2 27610  64.5572 152.2380 0293777 178.9038 322.2540 14.28114176772963
Epoch (UTC): 18 October 2017 04:24:01
Eccentricity: 0.0293777
inclination: 64.5572°
perigee height: 587 km
apogee height: 1009 km
right ascension of ascending node: 152.2380°
argument of perigee: 178.9038°
revolutions per day: 14.28114176
mean anomaly at epoch: 322.2540°
orbit number at epoch: 77296

The dashed part of the orbit path shows where the satellite is in the earth's shadow,  

DLR